When you browse on this site, cookies collect data to enhance your experience and personalize the content and advertising you see.
Visit our Privacy Policy to learn more. By continuing to use the site, you agree to this use of cookies and data.
  • In Latvia
  • List of Countries
  • For 7 days
  • Water Temperature
  • Satellite Maps
  • Weather Map
  • Weather Widgets
  • user-avatar
    Login

    Hourly Weather Khmil'nyk

    Today, 24 April, Wednesday

    Time Temperature Precipitation Wind Pressure Humidity
    00:00 +8°C° 0 mm 3 mps 745 mmHg 62%
    01:00 +7°C° 0 mm 3 mps 745 mmHg 64%
    02:00 +7°C° 0 mm 2 mps 744 mmHg 67%
    03:00 +7°C° 0 mm 3 mps 744 mmHg 67%
    04:00 +5°C° 0 mm 3 mps 745 mmHg 67%
    05:00 +5°C° 0 mm 3 mps 745 mmHg 67%
    06:00 +8°C° 0 mm 3 mps 745 mmHg 62%
    07:00 +10°C° 0 mm 4 mps 745 mmHg 56%
    08:00 +12°C° 0 mm 5 mps 745 mmHg 50%
    09:00 +13°C° 0 mm 6 mps 745 mmHg 47%
    10:00 +14°C° 0 mm 6 mps 745 mmHg 45%
    11:00 +15°C° 0 mm 7 mps 746 mmHg 42%
    12:00 +15°C° 0 mm 6 mps 745 mmHg 41%
    13:00 +16°C° 0 mm 6 mps 745 mmHg 41%
    14:00 +17°C° 0 mm 5 mps 745 mmHg 39%
    15:00 +17°C° 0 mm 5 mps 745 mmHg 41%
    16:00 +16°C° 0 mm 5 mps 745 mmHg 43%
    17:00 +16°C° 0 mm 5 mps 744 mmHg 44%
    18:00 +14°C° 0 mm 4 mps 744 mmHg 49%
    19:00 +12°C° 0 mm 4 mps 744 mmHg 54%
    20:00 +10°C° 0 mm 3 mps 744 mmHg 60%
    21:00 +10°C° 0 mm 3 mps 744 mmHg 60%
    22:00 +9°C° 0 mm 3 mps 744 mmHg 61%
    23:00 +9°C° 0 mm 3 mps 744 mmHg 62%

    Tomorrow, 25 April, Thursday

    Time Temperature Precipitation Wind Pressure Humidity
    00:00 +8°C° 0 mm 3 mps 744 mmHg 64%
    01:00 +8°C° 0 mm 3 mps 744 mmHg 66%
    02:00 +7°C° 0 mm 3 mps 744 mmHg 67%
    03:00 +7°C° 0 mm 3 mps 744 mmHg 69%
    04:00 +7°C° 0 mm 3 mps 744 mmHg 71%
    05:00 +5°C° 0 mm 3 mps 744 mmHg 72%
    06:00 +7°C° 0 mm 4 mps 744 mmHg 68%
    07:00 +9°C° 0 mm 5 mps 744 mmHg 63%
    08:00 +10°C° 0 mm 5 mps 744 mmHg 58%
    09:00 +13°C° 0 mm 6 mps 744 mmHg 54%
    10:00 +14°C° 0 mm 6 mps 744 mmHg 50%
    11:00 +16°C° 0 mm 6 mps 744 mmHg 47%
    12:00 +16°C° 0 mm 6 mps 744 mmHg 46%
    13:00 +17°C° 0 mm 6 mps 743 mmHg 46%
    14:00 +19°C° 0 mm 6 mps 743 mmHg 45%
    15:00 +19°C° 0 mm 6 mps 743 mmHg 47%
    16:00 +17°C° 0 mm 6 mps 743 mmHg 49%
    17:00 +17°C° 0 mm 5 mps 742 mmHg 51%
    18:00 +16°C° 0 mm 5 mps 742 mmHg 55%
    19:00 +15°C° 0 mm 4 mps 742 mmHg 60%
    20:00 +13°C° 0 mm 4 mps 742 mmHg 64%
    21:00 +13°C° 0 mm 4 mps 742 mmHg 63%
    22:00 +13°C° 0 mm 4 mps 742 mmHg 63%
    23:00 +12°C° 0 mm 4 mps 741 mmHg 62%

    Day after tomorrow, 26 April, Friday

    Time Temperature Precipitation Wind Pressure Humidity
    00:00 +12°C° 0 mm 4 mps 741 mmHg 62%
    01:00 +11°C° 0 mm 4 mps 741 mmHg 62%
    02:00 +11°C° 0 mm 4 mps 741 mmHg 62%
    03:00 +10°C° 0 mm 4 mps 741 mmHg 64%
    04:00 +10°C° 0 mm 4 mps 741 mmHg 66%
    05:00 +8°C° 0 mm 4 mps 741 mmHg 67%
    06:00 +10°C° 0 mm 4 mps 740 mmHg 66%
    07:00 +11°C° 0 mm 4 mps 740 mmHg 65%
    08:00 +12°C° 0 mm 5 mps 740 mmHg 63%
    09:00 +14°C° 0 mm 5 mps 740 mmHg 61%
    10:00 +16°C° 0 mm 5 mps 740 mmHg 59%
    11:00 +17°C° 0 mm 6 mps 740 mmHg 57%
    12:00 +19°C° 0 mm 6 mps 740 mmHg 57%
    13:00 +20°C° 0 mm 6 mps 739 mmHg 56%
    14:00 +21°C° 0 mm 6 mps 739 mmHg 55%
    15:00 +21°C° 0 mm 6 mps 739 mmHg 56%
    16:00 +20°C° 0 mm 6 mps 738 mmHg 57%
    17:00 +20°C° 0 mm 5 mps 738 mmHg 58%
    18:00 +19°C° 0 mm 5 mps 738 mmHg 63%
    19:00 +17°C° 0 mm 4 mps 738 mmHg 67%
    20:00 +15°C° 0 mm 4 mps 737 mmHg 71%
    21:00 +14°C° 0 mm 4 mps 737 mmHg 70%
    22:00 +14°C° 0 mm 5 mps 737 mmHg 68%
    23:00 +13°C° 0 mm 5 mps 737 mmHg 67%

    27 April, Saturday

    Time Temperature Precipitation Wind Pressure Humidity
    00:00 +13°C° 0 mm 5 mps 737 mmHg 67%
    01:00 +12°C° 0 mm 5 mps 737 mmHg 68%
    02:00 +10°C° 0 mm 5 mps 736 mmHg 68%
    03:00 +10°C° 0 mm 5 mps 736 mmHg 69%
    04:00 +10°C° 0 mm 4 mps 736 mmHg 69%
    05:00 +10°C° 0 mm 4 mps 735 mmHg 70%
    06:00 +10°C° 0.2 mm 5 mps 735 mmHg 69%
    07:00 +12°C° 0.2 mm 5 mps 735 mmHg 69%
    08:00 +13°C° 0.2 mm 5 mps 735 mmHg 68%
    09:00 +15°C° 0 mm 5 mps 735 mmHg 65%
    10:00 +17°C° 0 mm 5 mps 735 mmHg 62%
    11:00 +19°C° 0 mm 6 mps 735 mmHg 59%
    12:00 +20°C° 0 mm 5 mps 735 mmHg 57%
    13:00 +21°C° 0 mm 5 mps 735 mmHg 54%
    14:00 +22°C° 0 mm 5 mps 735 mmHg 52%
    15:00 +22°C° 0 mm 5 mps 734 mmHg 53%
    16:00 +22°C° 0 mm 5 mps 734 mmHg 54%
    17:00 +22°C° 0 mm 5 mps 733 mmHg 55%
    18:00 +20°C° 0 mm 4 mps 733 mmHg 59%
    19:00 +18°C° 0 mm 3 mps 733 mmHg 64%
    20:00 +16°C° 0 mm 3 mps 733 mmHg 69%
    21:00 +14°C° 0 mm 3 mps 733 mmHg 71%
    22:00 +13°C° 0 mm 3 mps 733 mmHg 73%
    23:00 +13°C° 0 mm 3 mps 733 mmHg 75%

    28 April, Sunday

    Time Temperature Precipitation Wind Pressure Humidity
    00:00 +12°C° 0 mm 3 mps 733 mmHg 76%
    01:00 +12°C° 0 mm 3 mps 733 mmHg 77%
    02:00 +11°C° 0 mm 3 mps 733 mmHg 78%
    03:00 +10°C° 0 mm 3 mps 733 mmHg 78%
    04:00 +10°C° 0 mm 3 mps 732 mmHg 78%
    05:00 +9°C° 0 mm 3 mps 732 mmHg 78%
    06:00 +10°C° 0 mm 3 mps 733 mmHg 71%
    07:00 +12°C° 0 mm 3 mps 733 mmHg 65%
    08:00 +13°C° 0 mm 3 mps 733 mmHg 58%
    09:00 +15°C° 0 mm 4 mps 733 mmHg 53%
    10:00 +18°C° 0 mm 4 mps 733 mmHg 48%
    11:00 +19°C° 0 mm 4 mps 733 mmHg 43%
    12:00 +20°C° 0 mm 4 mps 733 mmHg 41%
    13:00 +21°C° 0 mm 4 mps 733 mmHg 39%
    14:00 +22°C° 0 mm 4 mps 733 mmHg 37%
    15:00 +21°C° 0 mm 3 mps 733 mmHg 39%
    16:00 +21°C° 0 mm 3 mps 732 mmHg 40%
    17:00 +21°C° 0 mm 3 mps 732 mmHg 42%
    18:00 +19°C° 0 mm 3 mps 732 mmHg 47%
    19:00 +17°C° 0 mm 2 mps 732 mmHg 53%
    20:00 +15°C° 0 mm 2 mps 732 mmHg 58%
    21:00 +14°C° 0 mm 2 mps 732 mmHg 61%
    22:00 +14°C° 0 mm 2 mps 732 mmHg 64%
    23:00 +13°C° 0 mm 2 mps 732 mmHg 67%

    29 April, Monday

    Time Temperature Precipitation Wind Pressure Humidity
    00:00 +13°C° 0 mm 2 mps 732 mmHg 69%
    01:00 +12°C° 0 mm 1 mps 732 mmHg 71%
    02:00 +12°C° 0 mm 1 mps 732 mmHg 73%
    03:00 +12°C° 0 mm 1 mps 732 mmHg 76%
    04:00 +11°C° 0 mm 1 mps 732 mmHg 78%
    05:00 +11°C° 0 mm 1 mps 732 mmHg 81%
    06:00 +13°C° 0 mm 1 mps 732 mmHg 77%
    07:00 +14°C° 0 mm 1 mps 733 mmHg 73%
    08:00 +16°C° 0 mm 1 mps 733 mmHg 69%
    09:00 +17°C° 0.5 mm 2 mps 733 mmHg 65%
    10:00 +18°C° 0.5 mm 3 mps 733 mmHg 61%
    11:00 +19°C° 0.5 mm 3 mps 733 mmHg 58%
    12:00 +20°C° 0.9 mm 3 mps 733 mmHg 56%
    13:00 +20°C° 0.9 mm 3 mps 733 mmHg 55%
    14:00 +20°C° 0.9 mm 3 mps 733 mmHg 54%
    15:00 +19°C° 1.4 mm 4 mps 733 mmHg 60%
    16:00 +17°C° 1.4 mm 5 mps 733 mmHg 67%
    17:00 +16°C° 1.4 mm 6 mps 733 mmHg 73%
    18:00 +14°C° 0.3 mm 6 mps 733 mmHg 78%
    19:00 +11°C° 0.3 mm 7 mps 733 mmHg 83%
    20:00 +10°C° 0.3 mm 7 mps 733 mmHg 88%
    21:00 +9°C° 0 mm 7 mps 734 mmHg 88%
    22:00 +8°C° 0 mm 7 mps 734 mmHg 88%
    23:00 +8°C° 0 mm 7 mps 734 mmHg 88%
    Show more